Flag for Venezuela Weather past 2 weeks in Barquisimeto, Venezuela

Now
72 °F

Passing clouds.


Feels Like: 67 °F
Forecast: 65 / 95 °F
Wind: 5 mph from Southeast

Location: Barquisimeto Airport

Current Time: Oct 23, 2014 at 4:53:32 AM

Latest Report: Oct 23, 2014 at 1:30 AM


Visibility: N/A

Pressure: 29.95 "Hg

Humidity: 94%

Dew point: 70 °F

Location of BarquisimetoLocation

Historic Weather in Barquisimeto — Graph

°F

Barquisimeto temperature yesterday

Maximum temperature yesterday: 88 °F (at 12:30 PM)
Minimum temperature yesterday: 70 °F (at 4:30 AM)
Average temperature yesterday: 79 °F

Past Weeks' High & Low Weather Summary

 TemperatureHumidityPressure
High91 °F (Oct 16, 12:30 PM)100% (Oct 9, 5:30 AM)30.07 "Hg (Oct 9, 5:30 AM)
Low68 °F (Oct 14, 6:30 AM)41% (Oct 16, 1:30 PM)29.89 "Hg (Oct 8, 2:30 PM)
Average78 °F75%29.98 "Hg
* Reported Oct 8 1:30 AM — Oct 23 1:30 AM, Barquisimeto, Weather by CustomWeather, © 2014

Note: Actual official high and low records may vary slightly from our data, if they occured in-between our weather recording intervals... More about our weather records

Advertising

Barquisimeto weather history for previous 24 hours

 ConditionsComfort  
Time TempWeatherWind HumidityBarometerVisibility
1:30 AM
Oct 23
72 °FPassing clouds.5 mph94%29.95 "HgN/A
10:30 PM
Oct 22
73 °FPassing clouds.7 mph89%30.01 "HgN/A
9:30 PM73 °FPassing clouds.9 mph83%30.01 "HgN/A
8:30 PM75 °FPassing clouds.8 mph78%29.98 "HgN/A
7:30 PM77 °FPassing clouds.7 mph79%29.98 "HgN/A
6:30 PM79 °FPassing clouds.12 mph70%29.95 "HgN/A
5:30 PM82 °FPassing clouds.12 mph62%29.92 "HgN/A
4:30 PM84 °FPartly sunny.7 mph55%29.92 "HgN/A
3:30 PM84 °FWarm.15 mph58%29.92 "HgN/A
2:30 PM86 °FBroken clouds.14 mph55%29.95 "HgN/A
1:30 PM88 °FBroken clouds.14 mph52%30.01 "HgN/A
12:30 PM88 °FScattered clouds.15 mph52%30.01 "HgN/A
11:30 AM86 °FScattered clouds.15 mph59%30.04 "HgN/A
10:30 AM84 °FPassing clouds.10 mph62%30.04 "HgN/A
9:30 AM81 °FScattered clouds.9 mph74%30.07 "HgN/A
8:30 AM79 °FScattered clouds.5 mph79%30.04 "HgN/A
7:30 AM73 °FPassing clouds.7 mph89%30.01 "Hg6 mi
6:30 AM72 °FFog.3 mph88%29.98 "Hg6 mi
5:30 AM72 °FPassing clouds.6 mph88%29.98 "HgN/A
4:30 AM70 °FPassing clouds.6 mph94%29.98 "HgN/A
Weather by CustomWeather, © 2014

See weather overviewHow to use our weather pages